Showing default

ACTS, 22796

Orbit data source: Space-Track

ACTS, 22796 is a payload satellite owned by NASA LeRC (US) in GEO that was launched on Sun, 12 Sep 1993 UTC via an SPACE SHUTTLE launch vehicle from the Air Force Eastern Test Range (AFETR). Payload-class satellites include a variety of spacecraft equipped with specific instruments for various scientific and technological missions. These include communications satellites like Starlink; space stations such as the ISS; scientific satellites like the Hubble; Earth observation satellites from companies like Planet Labs, Umbra, and HawkEye 360; GPS; miniature CubeSats for education and research; and military/defense satellites.

Loading next visibility...
Identifier
22796, 1993-058B
Orbit
GEO
Country
Flag of USUS
Related business
Manufacturer
MM/East Windsor
Mission
Non-operational Civil Communications
Bus & Motor
AS4000, Unknown motor
Mass
2,770 kg wet, ~1,488 kg dry
Launch date (UTC)
1993-09-12 (32 years ago)
Launch vehicle
SPACE SHUTTLE
Launch site
Air Force Eastern Test Range (AFETR)
Object type
Payload
Rocket body
Debris
Shape & HBR
Hex Poly + 2 Pan, 1.1 m
Radar Cross Section
4.512 m², Large (>1 m²)

Expand to show TLE details & history
Last TLE update: 16 hours ago

TLE from 16 hours ago
0 ACTS
1 22796U 93058B   25258.40425203 -.00000125  00000-0  00000-0 0  9992
2 22796  14.5849 357.6657 0049798  77.3791 319.9421  1.00271763124158
Epoch: 2025-09-15T09:42Z
TLE epoch observation values (Epoch: 2025-09-15T09:42:07.375Z)
Latitude
8.70685°
Longitude
-106.42784°
Altitude
35,625.89 km
Speed
3.086 km/s
True Right ascension
02h 14m 50s
True Declination
8° 41' 53"
Sunlit
Object was in daylight at epoch
Visualization orbit readout
Latitude
Unknown
Longitude
Unknown
Altitude
Unknown
Speed
Unknown
Apparent Right ascension
Unknown
Apparent Declination
Unknown
Sunlit
N/A
Visualization observer readout
Local Sidereal Time
17:53:36
Azimuth
Unknown
Elevation
Unknown
Doppler factor
Unknown
Orbital elements
Apogee altitude
35,997.549 km
Perigee altitude
35,577.595 km
Semi-major axis
42,165.709 km
Eccentricity
0.00498
Inclination
14.5849°
RAAN
357.6657°
Arg. of periapsis
77.3791°
True anomaly
319.5731°
Mean anomaly
319.9421°
Eccentric anomaly
319.75778°
Mean motion
0.25067 °/min
Orbital period
1,436.15 mins
BSTAR
0
Loading maneuver chart data...
Computing Atmospheric mass density...
Loading historical data...
Loading historical data...
Loading historical data...
Loading historical data...
Loading historical data...
Loading historical data...
Loading historical data...

Documentation

Showing up to 5 results
|